Location: U-46 Planetarium
(42.0300°N, 88.2740°W)
Time: 20:01:32
(UTC-06:00)

Hubble Space Telescope - Pass Details

Date: 16 December 2017
Orbit: 537 x 541 km, 28.5° (Epoch: 23 January)

Event Time Altitude Azimuth Distance (km) Brightness Sun altitude
Rises 17:20:01 0° 241° (WSW) 2,676 6.5 -10.3°
Reaches altitude 10° 17:24:21 10° 198° (SSW) 1,785 4.0 -11.1°
Maximum altitude 17:24:57 10° 190° (S) 1,768 3.8 -11.2°
Drops below altitude 10° 17:25:33 10° 181° (S) 1,785 3.7 -11.3°
Sets 17:29:53 0° 139° (SE) 2,675 4.1 -12.0°
